Year,Month,Day,Hour,Minute,Value (Times are PST for temperature in C)
2008,05,22,07,38,7.30
2008,05,22,07,39,7.30
2008,05,22,07,40,7.30
2008,05,22,07,41,7.30
2008,05,22,07,42,7.40
2008,05,22,07,43,7.40
2008,05,22,07,44,7.40
2008,05,22,07,45,7.40
2008,05,22,07,46,7.50
2008,05,22,07,47,7.50
2008,05,22,07,48,7.50
2008,05,22,07,49,7.50
2008,05,22,07,50,7.50
2008,05,22,07,51,7.50
2008,05,22,07,52,7.50
2008,05,22,07,53,7.50
2008,05,22,07,54,7.50
2008,05,22,07,55,7.50
2008,05,22,07,56,7.60
2008,05,22,07,57,7.60
2008,05,22,07,58,7.60
2008,05,22,07,59,7.70
2008,05,22,08,00,7.70
2008,05,22,08,01,7.70
2008,05,22,08,02,7.70
2008,05,22,08,03,7.70
2008,05,22,08,04,7.70
2008,05,22,08,05,7.70
2008,05,22,08,06,7.70
2008,05,22,08,07,7.70
2008,05,22,08,08,7.70
2008,05,22,08,09,7.80
2008,05,22,08,10,7.80
2008,05,22,08,11,7.80
2008,05,22,08,12,7.80
2008,05,22,08,13,7.80
2008,05,22,08,14,7.80
2008,05,22,08,15,7.80
2008,05,22,08,16,7.80
2008,05,22,08,17,7.80
2008,05,22,08,18,7.80
2008,05,22,08,19,7.80
2008,05,22,08,20,7.90
2008,05,22,08,21,7.90
2008,05,22,08,22,7.80
2008,05,22,08,23,7.80
2008,05,22,08,24,7.80
2008,05,22,08,25,7.90
2008,05,22,08,26,7.90
2008,05,22,08,27,7.90
2008,05,22,08,28,8.00
2008,05,22,08,29,8.00
2008,05,22,08,30,8.00
2008,05,22,08,31,8.00
2008,05,22,08,32,8.10
2008,05,22,08,33,8.10
2008,05,22,08,34,8.10
2008,05,22,08,35,8.20
2008,05,22,08,36,8.20
2008,05,22,08,37,8.20
2008,05,22,08,38,8.20
2008,05,22,08,39,8.30
2008,05,22,08,40,8.30
2008,05,22,08,41,8.30
2008,05,22,08,42,8.30
2008,05,22,08,43,8.40
2008,05,22,08,44,8.40
2008,05,22,08,45,8.40
2008,05,22,08,46,8.40
2008,05,22,08,47,8.40
2008,05,22,08,48,8.40
2008,05,22,08,49,8.40
2008,05,22,08,50,8.40
2008,05,22,08,51,8.40
2008,05,22,08,52,8.40
2008,05,22,08,53,8.40
2008,05,22,08,54,8.40
2008,05,22,08,55,8.50
2008,05,22,08,56,8.50
2008,05,22,08,57,8.50
2008,05,22,08,58,8.60
2008,05,22,08,59,8.60
2008,05,22,09,00,8.60
2008,05,22,09,01,8.60
2008,05,22,09,02,8.60
2008,05,22,09,03,8.60
2008,05,22,09,04,8.60
2008,05,22,09,05,8.60
2008,05,22,09,06,8.70
2008,05,22,09,07,8.70
2008,05,22,09,08,8.70
2008,05,22,09,09,8.70
2008,05,22,09,10,8.70
2008,05,22,09,11,8.80
2008,05,22,09,12,8.80
2008,05,22,09,13,8.80
2008,05,22,09,14,8.80
2008,05,22,09,15,8.80
2008,05,22,09,16,8.80
2008,05,22,09,17,8.80
2008,05,22,09,18,8.80
2008,05,22,09,19,8.90
2008,05,22,09,20,8.90
2008,05,22,09,21,8.90
2008,05,22,09,22,9.00
2008,05,22,09,23,9.00
2008,05,22,09,24,9.00
2008,05,22,09,25,8.90
2008,05,22,09,26,8.90
2008,05,22,09,27,8.90
2008,05,22,09,28,8.90
2008,05,22,09,29,8.90
2008,05,22,09,30,8.90
2008,05,22,09,31,8.90
2008,05,22,09,32,8.90
2008,05,22,09,33,8.90
2008,05,22,09,34,8.90
2008,05,22,09,35,8.90
2008,05,22,09,36,8.90
2008,05,22,09,37,8.90
2008,05,22,09,38,8.90
2008,05,22,09,39,8.90
2008,05,22,09,40,9.00
2008,05,22,09,41,9.00
2008,05,22,09,42,9.10
2008,05,22,09,43,9.10
2008,05,22,09,44,9.20
2008,05,22,09,45,9.20
2008,05,22,09,46,9.30
2008,05,22,09,47,9.30
2008,05,22,09,48,9.30
2008,05,22,09,49,9.40
2008,05,22,09,50,9.40
2008,05,22,09,51,9.40
2008,05,22,09,52,9.40
2008,05,22,09,53,9.30
2008,05,22,09,54,9.30
2008,05,22,09,55,9.30
2008,05,22,09,56,9.30
2008,05,22,09,57,9.30
2008,05,22,09,58,9.30
2008,05,22,09,59,9.30
2008,05,22,10,00,9.30
2008,05,22,10,01,9.30
2008,05,22,10,02,9.20
2008,05,22,10,03,9.20
2008,05,22,10,04,9.20
2008,05,22,10,05,9.20
2008,05,22,10,06,9.10
2008,05,22,10,07,9.10
2008,05,22,10,08,9.10
2008,05,22,10,09,9.10
2008,05,22,10,10,9.10
2008,05,22,10,11,9.10
2008,05,22,10,12,9.20
2008,05,22,10,13,9.20
2008,05,22,10,14,9.20
2008,05,22,10,15,9.30
2008,05,22,10,16,9.30
2008,05,22,10,17,9.30
2008,05,22,10,18,9.30
2008,05,22,10,19,9.30
2008,05,22,10,20,9.30
2008,05,22,10,21,9.30
2008,05,22,10,22,9.30
2008,05,22,10,23,9.30
2008,05,22,10,24,9.30
2008,05,22,10,25,9.30
2008,05,22,10,26,9.40
2008,05,22,10,27,9.40
2008,05,22,10,28,9.40
2008,05,22,10,29,9.40
2008,05,22,10,30,9.40
2008,05,22,10,31,9.50
2008,05,22,10,32,9.50
2008,05,22,10,33,9.50
2008,05,22,10,34,9.60
2008,05,22,10,35,9.60
2008,05,22,10,36,9.60
2008,05,22,10,37,9.60
2008,05,22,10,38,9.70
2008,05,22,10,39,9.70
2008,05,22,10,40,9.70
2008,05,22,10,41,9.80
2008,05,22,10,42,9.80
2008,05,22,10,43,9.80
2008,05,22,10,44,9.90
2008,05,22,10,45,9.90
2008,05,22,10,46,9.90
2008,05,22,10,47,10.00
2008,05,22,10,48,10.00
2008,05,22,10,49,10.00
2008,05,22,10,50,10.00
2008,05,22,10,51,10.00
2008,05,22,10,52,10.00
2008,05,22,10,53,10.00
2008,05,22,10,54,10.00
2008,05,22,10,55,10.10
2008,05,22,10,56,10.10
2008,05,22,10,57,10.10
2008,05,22,10,58,10.20
2008,05,22,10,59,10.20
2008,05,22,11,00,10.30
2008,05,22,11,01,10.30
2008,05,22,11,02,10.40
2008,05,22,11,03,10.50
2008,05,22,11,04,10.60
2008,05,22,11,05,10.60
2008,05,22,11,06,10.70
2008,05,22,11,07,10.70
2008,05,22,11,08,10.80
2008,05,22,11,09,10.70
2008,05,22,11,10,10.70
2008,05,22,11,11,10.80
2008,05,22,11,12,10.80
2008,05,22,11,13,10.80
2008,05,22,11,14,10.90
2008,05,22,11,15,11.00
2008,05,22,11,16,11.00
2008,05,22,11,17,11.00
2008,05,22,11,18,11.00
2008,05,22,11,19,11.10
2008,05,22,11,20,11.10
2008,05,22,11,21,11.20
2008,05,22,11,22,11.20
2008,05,22,11,23,11.20
2008,05,22,11,24,11.20
2008,05,22,11,25,11.20
2008,05,22,11,26,11.20
2008,05,22,11,27,11.20
2008,05,22,11,28,11.30
2008,05,22,11,29,11.30
2008,05,22,11,30,11.30
2008,05,22,11,31,11.40
2008,05,22,11,32,11.40
2008,05,22,11,33,11.40
2008,05,22,11,34,11.50
2008,05,22,11,35,11.60
2008,05,22,11,36,11.60
2008,05,22,11,37,11.60
2008,05,22,11,38,11.60
2008,05,22,11,39,11.70
2008,05,22,11,40,11.70
2008,05,22,11,41,11.70
2008,05,22,11,42,11.80
2008,05,22,11,43,11.80
2008,05,22,11,44,11.80
2008,05,22,11,45,11.80
2008,05,22,11,46,11.90
2008,05,22,11,47,12.00
2008,05,22,11,48,12.00
2008,05,22,11,49,12.10
2008,05,22,11,50,12.10
2008,05,22,11,51,12.20
2008,05,22,11,52,12.20
2008,05,22,11,53,12.20
2008,05,22,11,54,12.30
2008,05,22,11,55,12.30
2008,05,22,11,56,12.40
2008,05,22,11,57,12.40
2008,05,22,11,58,12.40
2008,05,22,11,59,12.40
2008,05,22,12,00,12.40
2008,05,22,12,01,12.40
2008,05,22,12,02,12.40
2008,05,22,12,03,12.30
2008,05,22,12,04,12.20
2008,05,22,12,05,12.00
2008,05,22,12,06,11.90
2008,05,22,12,07,11.90
2008,05,22,12,08,11.90
2008,05,22,12,09,11.90
2008,05,22,12,10,12.00
2008,05,22,12,11,12.10
2008,05,22,12,12,12.10
2008,05,22,12,13,12.20
2008,05,22,12,14,12.20
2008,05,22,12,15,12.20
2008,05,22,12,16,12.30
2008,05,22,12,17,12.30
2008,05,22,12,18,12.40
2008,05,22,12,19,12.50
2008,05,22,12,20,12.60
2008,05,22,12,21,12.70
2008,05,22,12,22,12.70
2008,05,22,12,23,12.70
2008,05,22,12,24,12.80
2008,05,22,12,25,12.80
2008,05,22,12,26,12.80
2008,05,22,12,27,12.80
2008,05,22,12,28,12.80
2008,05,22,12,29,12.70
2008,05,22,12,30,12.80
2008,05,22,12,31,12.80
2008,05,22,12,32,12.80
2008,05,22,12,33,12.80
2008,05,22,12,34,12.80
2008,05,22,12,35,12.80
2008,05,22,12,36,12.80
2008,05,22,12,37,12.80
2008,05,22,12,38,12.80
2008,05,22,12,39,12.80
2008,05,22,12,40,12.80
2008,05,22,12,41,12.80
2008,05,22,12,42,12.70
2008,05,22,12,43,12.60
2008,05,22,12,44,12.60
2008,05,22,12,45,12.60
2008,05,22,12,46,12.60
2008,05,22,12,47,12.60
2008,05,22,12,48,12.60
2008,05,22,12,49,12.60
2008,05,22,12,50,12.60
2008,05,22,12,51,12.60
2008,05,22,12,52,12.60
2008,05,22,12,53,12.50
2008,05,22,12,54,12.50
2008,05,22,12,55,12.50
2008,05,22,12,56,12.50
2008,05,22,12,57,12.50
2008,05,22,12,58,12.50
2008,05,22,12,59,12.50
2008,05,22,13,00,12.50
2008,05,22,13,01,12.50
2008,05,22,13,02,12.50
2008,05,22,13,03,12.50
2008,05,22,13,04,12.50
2008,05,22,13,05,12.60
2008,05,22,13,06,12.50
2008,05,22,13,07,12.60
2008,05,22,13,08,12.50
2008,05,22,13,09,12.50
2008,05,22,13,10,12.50
2008,05,22,13,11,12.50
2008,05,22,13,12,12.40
2008,05,22,13,13,12.40
2008,05,22,13,14,12.40
2008,05,22,13,15,12.30
2008,05,22,13,16,12.40
2008,05,22,13,17,12.40
2008,05,22,13,18,12.40
2008,05,22,13,19,12.40
2008,05,22,13,20,12.40
2008,05,22,13,21,12.40
2008,05,22,13,22,12.30
2008,05,22,13,23,12.30
2008,05,22,13,24,12.30
2008,05,22,13,25,12.20
2008,05,22,13,26,12.30
2008,05,22,13,27,12.30
2008,05,22,13,28,12.30
2008,05,22,13,29,12.30
2008,05,22,13,30,12.30
2008,05,22,13,31,12.30
2008,05,22,13,32,12.30
2008,05,22,13,33,12.30
2008,05,22,13,34,12.30
2008,05,22,13,35,12.40
2008,05,22,13,36,12.40
2008,05,22,13,37,12.50
2008,05,22,13,38,12.50
2008,05,22,13,39,12.60
2008,05,22,13,40,12.60
2008,05,22,13,41,12.60
2008,05,22,13,42,12.70
2008,05,22,13,43,12.70
2008,05,22,13,44,12.70
2008,05,22,13,45,12.70
2008,05,22,13,46,12.70
2008,05,22,13,47,12.70
2008,05,22,13,48,12.60
2008,05,22,13,49,12.60
2008,05,22,13,50,12.60
2008,05,22,13,51,12.60
2008,05,22,13,52,12.60
2008,05,22,13,53,12.60
2008,05,22,13,54,12.60
2008,05,22,13,55,12.60
2008,05,22,13,56,12.60
2008,05,22,13,57,12.60
2008,05,22,13,58,12.60
2008,05,22,13,59,12.60
2008,05,22,14,00,12.60
2008,05,22,14,01,12.60
2008,05,22,14,02,12.60
2008,05,22,14,03,12.60
2008,05,22,14,04,12.60
2008,05,22,14,05,12.60
2008,05,22,14,06,12.60
2008,05,22,14,07,12.60
2008,05,22,14,08,12.60
2008,05,22,14,09,12.50
2008,05,22,14,10,12.50
2008,05,22,14,11,12.40
2008,05,22,14,12,12.40
2008,05,22,14,13,12.40
2008,05,22,14,14,12.40
2008,05,22,14,15,12.40
2008,05,22,14,16,12.40
2008,05,22,14,17,12.40
2008,05,22,14,18,12.50
2008,05,22,14,19,12.50
2008,05,22,14,20,12.60
2008,05,22,14,21,12.70
2008,05,22,14,22,12.70
2008,05,22,14,23,12.80
2008,05,22,14,24,12.80
2008,05,22,14,25,12.80
2008,05,22,14,26,12.90
2008,05,22,14,27,12.90
2008,05,22,14,28,12.90
2008,05,22,14,29,12.90
2008,05,22,14,30,12.80
2008,05,22,14,31,12.80
2008,05,22,14,32,12.80
2008,05,22,14,33,12.80
2008,05,22,14,34,12.80
2008,05,22,14,35,12.90
2008,05,22,14,36,13.00
2008,05,22,14,37,13.10
2008,05,22,14,38,13.10
2008,05,22,14,39,13.00
2008,05,22,14,40,13.00
2008,05,22,14,41,13.00
2008,05,22,14,42,13.00
2008,05,22,14,43,13.00
2008,05,22,14,44,13.10
2008,05,22,14,45,13.10
2008,05,22,14,46,13.10
2008,05,22,14,47,13.00
2008,05,22,14,48,13.00
2008,05,22,14,49,13.00
2008,05,22,14,50,13.00
2008,05,22,14,51,13.10
2008,05,22,14,52,13.10
2008,05,22,14,53,13.10
2008,05,22,14,54,13.10
2008,05,22,14,55,13.10
2008,05,22,14,56,13.10
2008,05,22,14,57,13.10
2008,05,22,14,58,13.10
2008,05,22,14,59,13.00
2008,05,22,15,00,12.90
2008,05,22,15,01,12.80
2008,05,22,15,02,12.80
2008,05,22,15,03,12.80
2008,05,22,15,04,12.80
2008,05,22,15,05,12.90
2008,05,22,15,06,13.00
2008,05,22,15,07,13.00
2008,05,22,15,08,13.10
2008,05,22,15,09,13.10
2008,05,22,15,10,13.10
2008,05,22,15,11,13.20
2008,05,22,15,12,13.20
2008,05,22,15,13,13.20
2008,05,22,15,14,13.20
2008,05,22,15,15,13.30
2008,05,22,15,16,13.30
2008,05,22,15,17,13.30
2008,05,22,15,18,13.30
2008,05,22,15,19,13.20
2008,05,22,15,20,13.20
2008,05,22,15,21,13.20
2008,05,22,15,22,13.20
2008,05,22,15,23,13.20
2008,05,22,15,24,13.20
2008,05,22,15,25,13.30
2008,05,22,15,26,13.30
2008,05,22,15,27,13.20
2008,05,22,15,28,13.20
2008,05,22,15,29,13.20
2008,05,22,15,30,13.20
2008,05,22,15,31,13.30
2008,05,22,15,32,13.30
2008,05,22,15,33,13.40
2008,05,22,15,34,13.40
2008,05,22,15,35,13.50
2008,05,22,15,36,13.60
2008,05,22,15,37,13.60
2008,05,22,15,38,13.70
2008,05,22,15,39,13.70
2008,05,22,15,40,13.80
2008,05,22,15,41,13.80
2008,05,22,15,42,13.90
2008,05,22,15,43,13.90
2008,05,22,15,44,14.00
2008,05,22,15,45,14.00
2008,05,22,15,46,14.10
2008,05,22,15,47,14.10
2008,05,22,15,48,14.20
2008,05,22,15,49,14.20
2008,05,22,15,50,14.40
2008,05,22,15,51,14.50
2008,05,22,15,52,14.60
2008,05,22,15,53,14.80
2008,05,22,15,54,15.00
2008,05,22,15,55,15.10
2008,05,22,15,56,15.30
2008,05,22,15,57,15.30
2008,05,22,15,58,15.40
2008,05,22,15,59,15.30
2008,05,22,16,00,15.10
2008,05,22,16,01,15.00
2008,05,22,16,02,15.00
2008,05,22,16,03,15.00
2008,05,22,16,04,14.90
2008,05,22,16,05,14.80
2008,05,22,16,06,14.80
2008,05,22,16,07,14.70
2008,05,22,16,08,14.70
2008,05,22,16,09,14.70
2008,05,22,16,10,14.70
2008,05,22,16,11,14.70
2008,05,22,16,12,14.70
2008,05,22,16,13,14.70
2008,05,22,16,14,14.60
2008,05,22,16,15,14.60
2008,05,22,16,16,14.60
2008,05,22,16,17,14.60
2008,05,22,16,18,14.60
2008,05,22,16,19,14.60
2008,05,22,16,20,14.60
2008,05,22,16,21,14.70
2008,05,22,16,22,14.80
2008,05,22,16,23,14.80
2008,05,22,16,24,14.90
2008,05,22,16,25,14.80
2008,05,22,16,26,14.80
2008,05,22,16,27,14.80
2008,05,22,16,28,15.00
2008,05,22,16,29,15.00
2008,05,22,16,30,15.00
2008,05,22,16,31,15.00
2008,05,22,16,32,15.00
2008,05,22,16,33,15.10
2008,05,22,16,34,15.10
2008,05,22,16,35,15.10
2008,05,22,16,36,15.10
2008,05,22,16,37,15.00
2008,05,22,16,38,15.00
2008,05,22,16,39,15.00
2008,05,22,16,40,15.00
2008,05,22,16,41,15.00
2008,05,22,16,42,15.00
2008,05,22,16,43,15.00
2008,05,22,16,44,14.90
2008,05,22,16,45,14.90
2008,05,22,16,46,14.90
2008,05,22,16,47,15.00
2008,05,22,16,48,15.00
2008,05,22,16,49,15.00
2008,05,22,16,50,15.00
2008,05,22,16,51,15.00
2008,05,22,16,52,15.00
2008,05,22,16,53,15.00
2008,05,22,16,54,15.00
2008,05,22,16,55,15.00
2008,05,22,16,56,15.00
2008,05,22,16,57,15.10
2008,05,22,16,58,15.30
2008,05,22,16,59,15.40
2008,05,22,17,00,15.60
2008,05,22,17,01,15.70
2008,05,22,17,02,15.80
2008,05,22,17,03,15.90
2008,05,22,17,04,15.90
2008,05,22,17,05,16.00
2008,05,22,17,06,16.00
2008,05,22,17,07,16.10
2008,05,22,17,08,16.10
2008,05,22,17,09,16.20
2008,05,22,17,10,16.30
2008,05,22,17,11,16.30
2008,05,22,17,12,16.30
2008,05,22,17,13,16.30
2008,05,22,17,14,16.30
2008,05,22,17,15,16.40
2008,05,22,17,16,16.40
2008,05,22,17,17,16.40
2008,05,22,17,18,16.20
2008,05,22,17,19,16.10
2008,05,22,17,20,16.00
2008,05,22,17,21,15.80
2008,05,22,17,22,15.60
2008,05,22,17,23,15.40
2008,05,22,17,24,15.20
2008,05,22,17,25,15.10
2008,05,22,17,26,15.10
2008,05,22,17,27,15.10
2008,05,22,17,28,15.10
2008,05,22,17,29,15.20
2008,05,22,17,30,15.20
2008,05,22,17,31,15.20
2008,05,22,17,32,15.30
2008,05,22,17,33,15.30
2008,05,22,17,34,15.30
2008,05,22,17,35,15.40
2008,05,22,17,36,15.40
2008,05,22,17,37,15.40
2008,05,22,17,38,15.50
2008,05,22,17,39,15.50
2008,05,22,17,40,15.50
2008,05,22,17,41,15.30
2008,05,22,17,42,15.30
2008,05,22,17,43,15.30
2008,05,22,17,44,15.30
2008,05,22,17,45,15.20
2008,05,22,17,46,15.20
2008,05,22,17,47,15.20
2008,05,22,17,48,15.30
2008,05,22,17,49,15.30
2008,05,22,17,50,15.30
2008,05,22,17,51,15.40
2008,05,22,17,52,15.50
2008,05,22,17,53,15.60
2008,05,22,17,54,15.60
2008,05,22,17,55,15.60
2008,05,22,17,56,15.60
2008,05,22,17,57,15.60
2008,05,22,17,58,15.60
2008,05,22,17,59,15.60
2008,05,22,18,00,15.60
2008,05,22,18,01,15.60
2008,05,22,18,02,15.60
2008,05,22,18,03,15.60
2008,05,22,18,04,15.50
2008,05,22,18,05,15.50
2008,05,22,18,06,15.50
2008,05,22,18,07,15.60
2008,05,22,18,08,15.60
2008,05,22,18,09,15.70
2008,05,22,18,10,15.60
2008,05,22,18,11,15.70
2008,05,22,18,12,15.70
2008,05,22,18,13,15.80
2008,05,22,18,14,15.80
2008,05,22,18,15,15.80
2008,05,22,18,16,15.70
2008,05,22,18,17,15.80
2008,05,22,18,18,15.80
2008,05,22,18,19,15.80
2008,05,22,18,20,15.90
2008,05,22,18,21,15.90
2008,05,22,18,22,15.90
2008,05,22,18,23,15.90
2008,05,22,18,24,15.90
2008,05,22,18,25,16.00
2008,05,22,18,26,15.90
2008,05,22,18,27,15.90
2008,05,22,18,28,15.80
2008,05,22,18,29,15.80
2008,05,22,18,30,15.70
2008,05,22,18,31,15.70
2008,05,22,18,32,15.70
2008,05,22,18,33,15.70
2008,05,22,18,34,15.70
2008,05,22,18,35,15.70
2008,05,22,18,36,15.70
2008,05,22,18,37,15.70
2008,05,22,18,38,15.80
2008,05,22,18,39,15.80
2008,05,22,18,40,15.80
2008,05,22,18,41,15.80
2008,05,22,18,42,15.80
2008,05,22,18,43,15.70
2008,05,22,18,44,15.70
2008,05,22,18,45,15.70
2008,05,22,18,46,15.60
2008,05,22,18,47,15.60
2008,05,22,18,48,15.60
2008,05,22,18,49,15.60
2008,05,22,18,50,15.60
2008,05,22,18,51,15.60
2008,05,22,18,52,15.60
2008,05,22,18,53,15.60
2008,05,22,18,54,15.60
2008,05,22,18,55,15.60
2008,05,22,18,56,15.60
2008,05,22,18,57,15.60
2008,05,22,18,58,15.40
2008,05,22,18,59,15.40
2008,05,22,19,00,15.40
2008,05,22,19,01,15.40
2008,05,22,19,02,15.40
2008,05,22,19,03,15.40
2008,05,22,19,04,15.40
2008,05,22,19,05,15.40
2008,05,22,19,06,15.40
2008,05,22,19,07,15.40
2008,05,22,19,08,15.40
2008,05,22,19,09,15.40
